Weather History for KFAY - October, 2011

Change the Weather History Date:

Sunday, October 30, 2011

  Actual Average Record
Temperature  
Mean Temperature 47 °F 59 °F  
Max Temperature 60 °F 72 °F 87 °F (1950)
Min Temperature 33 °F 47 °F 24 °F (1952)
Degree Days  
Heating Degree Days 18 7  
Month to date heating degree days 132 112  
Since 1 July heating degree days 142 121  
Cooling Degree Days 0 1  
Month to date cooling degree days 39 69  
Year to date cooling degree days 2382 1977  
Moisture  
Dew Point 32 °F    
Average Humidity 61    
Maximum Humidity 89    
Minimum Humidity 32    
Precipitation  
Precipitation 0.00 in 0.06 in 0.72 in (1935)
Month to date precipitation 1.23 3.13  
Year to date precipitation 31.02 38.96  
Sea Level Pressure  
Sea Level Pressure 30.26 in    
Wind  
Wind Speed 4 mph (NNE)    
Max Wind Speed 14 mph    
Max Gust Speed 17 mph    
Visibility 10 miles    
Events      
T = Trace of Precipitation, MM = Missing Value Source: NWS Daily Summary

Daily Weather History Graph

Daily Weather History Graph

Search for Another Location

Airport or City:

Trip Planner

Search our weather history database for the weather conditions in past years. The results will help you decide how hot, cold, wet, or windy it might be!

Date:

Astronomy

Oct. 30, 2011 Rise Set
Actual Time 7:34 AM EDT 6:23 PM EDT
Civil Twilight 7:08 AM EDT 6:49 PM EDT
Nautical Twilight 6:38 AM EDT 7:19 PM EDT
Astronomical Twilight 6:08 AM EDT 7:48 PM EDT
Moon 11:45 AM EDT (10/30) 9:56 PM EDT (10/30)
Length of Visible Light 11h 41m
Length of Day
10h 49m
Waxing Crescent, 20% of the Moon is Illuminated
Oct 30
Waxing Crescent
Nov 2
First Quarter
Nov 10
Full
Nov 18
Last Quarter
Nov 25
New

Hourly Weather History & Observations

Time (EDT) Temp. Windchill Dew Point Humidity Pressure Visibility Wind Dir Wind Speed Gust Speed Precip Events Conditions
12:53 AM 39.9 °F - 30.0 °F 68% 30.14 in 10.0 mi Calm Calm - N/A   Clear
1:53 AM 36.0 °F 32.1 °F 30.0 °F 79% 30.15 in 10.0 mi WSW 4.6 mph - N/A   Clear
2:53 AM 39.0 °F 34.8 °F 30.9 °F 73% 30.16 in 10.0 mi WNW 5.8 mph - N/A   Clear
3:53 AM 36.0 °F 31.1 °F 30.0 °F 79% 30.17 in 10.0 mi West 5.8 mph - N/A   Clear
4:53 AM 36.0 °F 32.1 °F 30.0 °F 79% 30.17 in 10.0 mi West 4.6 mph - N/A   Clear
5:53 AM 34.0 °F 31.0 °F 30.0 °F 85% 30.19 in 10.0 mi West 3.5 mph - N/A   Clear
6:53 AM 35.1 °F 32.2 °F 30.0 °F 82% 30.22 in 10.0 mi NNW 3.5 mph - N/A   Clear
7:53 AM 33.8 °F - 30.2 °F 87% 30.25 in 10.0 mi Calm Calm - N/A   Clear
8:53 AM 41.0 °F - 33.1 °F 73% 30.27 in 10.0 mi Calm Calm - N/A   Clear
9:53 AM 46.0 °F 42.5 °F 34.0 °F 63% 30.29 in 10.0 mi NNE 6.9 mph - N/A   Clear
10:53 AM 51.1 °F - 34.0 °F 52% 30.30 in 10.0 mi NE 8.1 mph - N/A   Clear
11:53 AM 55.0 °F - 34.0 °F 45% 30.30 in 10.0 mi NNE 6.9 mph - N/A   Clear
12:53 PM 55.9 °F - 32.0 °F 40% 30.30 in 10.0 mi NNE 8.1 mph - N/A   Clear
1:53 PM 57.9 °F - 30.9 °F 36% 30.29 in 10.0 mi NE 5.8 mph - N/A   Clear
2:53 PM 59.0 °F - 30.0 °F 33% 30.26 in 10.0 mi North 5.8 mph - N/A   Clear
3:53 PM 60.1 °F - 30.9 °F 33% 30.26 in 10.0 mi NNE 6.9 mph - N/A   Clear
4:53 PM 57.2 °F - 30.2 °F 36% 30.28 in 10.0 mi ENE 5.8 mph - N/A   Clear
5:53 PM 55.0 °F - 32.0 °F 42% 30.27 in 10.0 mi ENE 4.6 mph - N/A   Clear
6:53 PM 51.1 °F - 33.1 °F 50% 30.28 in 10.0 mi East 3.5 mph - N/A   Clear
7:53 PM 46.9 °F - 35.1 °F 63% 30.30 in 10.0 mi East 3.5 mph - N/A   Clear
8:53 PM 45.0 °F - 34.0 °F 65% 30.31 in 10.0 mi Calm Calm - N/A   Clear
9:53 PM 43.0 °F - 34.0 °F 71% 30.32 in 10.0 mi Calm Calm - N/A   Clear
10:53 PM 42.1 °F 40.2 °F 34.0 °F 73% 30.34 in 10.0 mi ENE 3.5 mph - N/A   Clear
11:53 PM 39.9 °F - 33.1 °F 77% 30.34 in 10.0 mi Calm Calm - N/A   Clear